| time (UTC) | temp C | wind direction | speed KPH | gust KPH | rain 1hr cm | rain 24hr cm | rain mn cm | humidity % | barometer mb |
| 20260510213645 | 12 | 331 | 8.0 | 11.3 | 0.00 | 0.00 | 0.00 | 41 | 1020.4 |
| 20260510213142 | 12 | 326 | 6.4 | 12.9 | 0.00 | 0.00 | 0.00 | 35 | 1020.2 |
| 20260510212638 | 12 | 19 | 3.2 | 9.7 | 0.00 | 0.00 | 0.00 | 37 | 1020.0 |
| 20260510212136 | 12 | 261 | 6.4 | 9.7 | 0.00 | 0.00 | 0.00 | 38 | 1020.2 |
| 20260510211633 | 11 | 333 | 3.2 | 4.8 | 0.00 | 0.00 | 0.00 | 38 | 1020.1 |
| 20260510211133 | 12 | 268 | 3.2 | 6.4 | 0.00 | 0.00 | 0.00 | 39 | 1020.1 |
| 20260510210629 | 12 | 310 | 6.4 | 9.7 | 0.00 | 0.00 | 0.00 | 39 | 1020.3 |
| 20260510210125 | 12 | 345 | 4.8 | 6.4 | 0.00 | 0.00 | 0.00 | 35 | 1020.2 |
| 20260510205624 | 12 | 338 | 4.8 | 9.7 | 0.00 | 0.00 | 0.00 | 35 | 1020.1 |
| 20260510205120 | 12 | 292 | 6.4 | 12.9 | 0.00 | 0.00 | 0.00 | 37 | 1020.1 |
| 20260510204616 | 13 | 332 | 9.7 | 12.9 | 0.00 | 0.00 | 0.00 | 36 | 1020.0 |
| 20260510204113 | 12 | 291 | 4.8 | 4.8 | 0.00 | 0.00 | 0.00 | 36 | 1020.0 |
| 20260510203610 | 12 | 331 | 6.4 | 9.7 | 0.00 | 0.00 | 0.00 | 39 | 1020.3 |
| 20260510203107 | 12 | 313 | 8.0 | 14.5 | 0.00 | 0.00 | 0.00 | 41 | 1020.1 |
| 20260510202606 | 12 | 327 | 6.4 | 14.5 | 0.00 | 0.00 | 0.00 | 35 | 1020.3 |
| 20260510202102 | 12 | 278 | 6.4 | 11.3 | 0.00 | 0.00 | 0.00 | 43 | 1020.3 |
| 20260510201600 | 12 | 270 | 6.4 | 9.7 | 0.00 | 0.00 | 0.00 | 35 | 1020.0 |
| 20260510201056 | 12 | 322 | 8.0 | 20.9 | 0.00 | 0.00 | 0.00 | 34 | 1020.1 |
| 20260510200552 | 12 | 353 | 0.0 | 6.4 | 0.00 | 0.00 | 0.00 | 35 | 1019.9 |
| 20260510200050 | 11 | 217 | 4.8 | 9.7 | 0.00 | 0.00 | 0.00 | 37 | 1020.2 |
| 20260510195548 | 11 | 345 | 6.4 | 9.7 | 0.00 | 0.00 | 0.00 | 37 | 1020.1 |
| 20260510195044 | 10 | 326 | 6.4 | 16.1 | 0.00 | 0.00 | 0.00 | 37 | 1020.3 |
| 20260510194539 | 11 | 315 | 8.0 | 9.7 | 0.00 | 0.00 | 0.00 | 42 | 1020.2 |
| 20260510194035 | 12 | 45 | 1.6 | 6.4 | 0.00 | 0.00 | 0.00 | 40 | 1020.1 |
| 20260510193530 | 11 | 243 | 9.7 | 11.3 | 0.00 | 0.00 | 0.00 | 39 | 1020.1 |
| 20260510193027 | 11 | 317 | 1.6 | 14.5 | 0.00 | 0.00 | 0.00 | 36 | 1020.2 |
| 20260510192526 | 11 | 1 | 8.0 | 12.9 | 0.00 | 0.00 | 0.00 | 41 | 1020.3 |
| 20260510192023 | 11 | 134 | 6.4 | 12.9 | 0.00 | 0.00 | 0.00 | 42 | 1020.1 |
| 20260510191519 | 11 | 344 | 3.2 | 6.4 | 0.00 | 0.00 | 0.00 | 38 | 1020.0 |
| 20260510191016 | 11 | 293 | 6.4 | 14.5 | 0.00 | 0.00 | 0.00 | 39 | 1020.2 |
| 20260510190513 | 12 | 295 | 6.4 | 14.5 | 0.00 | 0.00 | 0.00 | 36 | 1020.0 |
| 20260510190011 | 11 | 310 | 8.0 | 12.9 | 0.00 | 0.00 | 0.00 | 38 | 1020.0 |
| 20260510185507 | 11 | 40 | 4.8 | 9.7 | 0.00 | 0.00 | 0.00 | 38 | 1020.0 |
| 20260510185004 | 11 | 316 | 8.0 | 12.9 | 0.00 | 0.00 | 0.00 | 39 | 1020.2 |
| 20260510184502 | 11 | 293 | 11.3 | 14.5 | 0.00 | 0.00 | 0.00 | 39 | 1020.2 |
| 20260510184001 | 10 | 289 | 4.8 | 14.5 | 0.00 | 0.00 | 0.00 | 42 | 1020.3 |
| 20260510183458 | 10 | 319 | 8.0 | 9.7 | 0.00 | 0.00 | 0.00 | 41 | 1020.0 |
| 20260510182953 | 10 | 324 | 8.0 | 9.7 | 0.00 | 0.00 | 0.00 | 42 | 1020.0 |
| 20260510182449 | 10 | 289 | 9.7 | 14.5 | 0.00 | 0.00 | 0.00 | 40 | 1019.9 |
| 20260510181945 | 10 | 37 | 4.8 | 9.7 | 0.00 | 0.00 | 0.00 | 40 | 1020.0 |
| 20260510181443 | 10 | 312 | 3.2 | 11.3 | 0.00 | 0.00 | 0.00 | 40 | 1020.0 |
| 20260510180939 | 10 | 18 | 4.8 | 16.1 | 0.00 | 0.00 | 0.00 | 41 | 1020.0 |
| 20260510180436 | 10 | 269 | 6.4 | 11.3 | 0.00 | 0.00 | 0.00 | 43 | 1020.0 |
| 20260510175933 | 10 | 314 | 6.4 | 14.5 | 0.00 | 0.00 | 0.00 | 43 | 1020.1 |
| 20260510175429 | 10 | 307 | 11.3 | 14.5 | 0.00 | 0.00 | 0.00 | 42 | 1020.0 |
| 20260510174925 | 10 | 309 | 3.2 | 9.7 | 0.00 | 0.00 | 0.00 | 40 | 1019.9 |
| 20260510174423 | 10 | 311 | 9.7 | 12.9 | 0.00 | 0.00 | 0.00 | 44 | 1019.8 |
| 20260510173919 | 10 | 325 | 8.0 | 16.1 | 0.00 | 0.00 | 0.00 | 42 | 1019.8 |
| 20260510173415 | 10 | 326 | 9.7 | 12.9 | 0.00 | 0.00 | 0.00 | 44 | 1019.8 |
| 20260510172912 | 10 | 353 | 6.4 | 14.5 | 0.00 | 0.00 | 0.00 | 41 | 1019.6 |
| 20260510172408 | 10 | 14 | 11.3 | 14.5 | 0.00 | 0.00 | 0.00 | 44 | 1019.8 |
| 20260510171903 | 10 | 335 | 12.9 | 20.9 | 0.00 | 0.00 | 0.00 | 43 | 1019.8 |
| 20260510171401 | 10 | 6 | 12.9 | 16.1 | 0.00 | 0.00 | 0.00 | 42 | 1019.6 |
| 20260510170858 | 10 | 291 | 9.7 | 12.9 | 0.00 | 0.00 | 0.00 | 40 | 1019.7 |
| 20260510170355 | 10 | 328 | 9.7 | 27.4 | 0.00 | 0.00 | 0.00 | 44 | 1019.7 |
| 20260510165849 | 10 | 357 | 4.8 | 6.4 | 0.00 | 0.00 | 0.00 | 42 | 1019.7 |
| 20260510165346 | 10 | 257 | 9.7 | 16.1 | 0.00 | 0.00 | 0.00 | 47 | 1019.7 |
| 20260510164844 | 10 | 329 | 11.3 | 12.9 | 0.00 | 0.00 | 0.00 | 43 | 1019.7 |
| 20260510164341 | 9 | 318 | 9.7 | 14.5 | 0.00 | 0.00 | 0.00 | 42 | 1019.7 |
| 20260510163840 | 10 | 325 | 4.8 | 11.3 | 0.00 | 0.00 | 0.00 | 42 | 1019.7 |
| 20260510163338 | 10 | 307 | 6.4 | 6.4 | 0.00 | 0.00 | 0.00 | 42 | 1019.5 |
| 20260510162837 | 10 | 340 | 8.0 | 11.3 | 0.00 | 0.00 | 0.00 | 41 | 1019.5 |
| 20260510162335 | 9 | 346 | 16.1 | 22.5 | 0.00 | 0.00 | 0.00 | 41 | 1019.5 |
| 20260510161830 | 9 | 324 | 8.0 | 14.5 | 0.00 | 0.00 | 0.00 | 42 | 1019.7 |
| 20260510161326 | 8 | 325 | 8.0 | 14.5 | 0.00 | 0.00 | 0.00 | 42 | 1019.4 |
| 20260510160825 | 9 | 317 | 12.9 | 17.7 | 0.00 | 0.00 | 0.00 | 42 | 1019.4 |
| 20260510160321 | 9 | 320 | 11.3 | 14.5 | 0.00 | 0.00 | 0.00 | 45 | 1019.5 |
| 20260510155820 | 9 | 323 | 14.5 | 20.9 | 0.00 | 0.00 | 0.00 | 44 | 1019.3 |
| 20260510155318 | 8 | 339 | 8.0 | 11.3 | 0.00 | 0.00 | 0.00 | 46 | 1019.3 |
| 20260510154813 | 9 | 330 | 11.3 | 16.1 | 0.00 | 0.00 | 0.00 | 45 | 1019.2 |
| 20260510154309 | 9 | 322 | 11.3 | 12.9 | 0.00 | 0.00 | 0.00 | 47 | 1019.0 |
| 20260510153804 | 9 | 277 | 6.4 | 12.9 | 0.00 | 0.00 | 0.00 | 49 | 1019.1 |
| 20260510153300 | 9 | 297 | 8.0 | 20.9 | 0.00 | 0.00 | 0.00 | 47 | 1019.1 |
| 20260510152757 | 8 | 287 | 11.3 | 16.1 | 0.00 | 0.00 | 0.00 | 45 | 1019.0 |
| 20260510152254 | 8 | 340 | 12.9 | 16.1 | 0.00 | 0.00 | 0.00 | 50 | 1019.3 |
| 20260510151750 | 8 | 302 | 9.7 | 17.7 | 0.00 | 0.00 | 0.00 | 48 | 1019.1 |
| 20260510151248 | 8 | 293 | 6.4 | 12.9 | 0.00 | 0.00 | 0.00 | 50 | 1019.0 |
| 20260510150743 | 8 | 308 | 9.7 | 14.5 | 0.00 | 0.00 | 0.00 | 49 | 1019.0 |
| 20260510150239 | 8 | 340 | 9.7 | 12.9 | 0.00 | 0.00 | 0.00 | 49 | 1019.0 |
| 20260510145730 | 8 | 332 | 9.7 | 12.9 | 0.00 | 0.00 | 0.00 | 50 | 1019.1 |
| 20260510145226 | 8 | 300 | 8.0 | 14.5 | 0.00 | 0.00 | 0.00 | 50 | 1019.1 |
| 20260510144722 | 8 | 321 | 8.0 | 11.3 | 0.00 | 0.00 | 0.00 | 55 | 1019.1 |
| 20260510144220 | 8 | 338 | 14.5 | 16.1 | 0.00 | 0.00 | 0.00 | 50 | 1018.7 |
| 20260510143714 | 7 | 322 | 6.4 | 11.3 | 0.00 | 0.00 | 0.00 | 53 | 1018.8 |
| 20260510143211 | 7 | 317 | 9.7 | 16.1 | 0.00 | 0.00 | 0.00 | 51 | 1018.7 |
| 20260510142707 | 8 | 331 | 9.7 | 12.9 | 0.00 | 0.00 | 0.00 | 52 | 1019.0 |
| 20260510142204 | 8 | 282 | 6.4 | 12.9 | 0.00 | 0.00 | 0.00 | 52 | 1018.8 |
| 20260510141701 | 7 | 323 | 8.0 | 16.1 | 0.00 | 0.00 | 0.00 | 51 | 1018.8 |
| 20260510141200 | 7 | 347 | 8.0 | 12.9 | 0.00 | 0.00 | 0.00 | 54 | 1018.6 |
| 20260510140655 | 7 | 323 | 11.3 | 17.7 | 0.00 | 0.00 | 0.00 | 52 | 1018.8 |
| 20260510140155 | 7 | 307 | 11.3 | 16.1 | 0.00 | 0.00 | 0.00 | 53 | 1018.7 |
| 20260510135650 | 7 | 302 | 6.4 | 12.9 | 0.00 | 0.00 | 0.00 | 58 | 1018.7 |
| 20260510135146 | 7 | 312 | 9.7 | 11.3 | 0.00 | 0.00 | 0.00 | 60 | 1018.8 |
| 20260510134643 | 7 | 302 | 6.4 | 14.5 | 0.00 | 0.00 | 0.00 | 60 | 1019.0 |
| 20260510134141 | 7 | 326 | 4.8 | 11.3 | 0.00 | 0.00 | 0.00 | 66 | 1018.7 |
| 20260510133637 | 7 | 324 | 8.0 | 12.9 | 0.00 | 0.00 | 0.00 | 63 | 1019.0 |
| 20260510133132 | 6 | 326 | 6.4 | 11.3 | 0.00 | 0.00 | 0.00 | 66 | 1018.8 |
| 20260510132629 | 6 | 329 | 8.0 | 16.1 | 0.00 | 0.00 | 0.00 | 64 | 1018.8 |
| 20260510132126 | 6 | 328 | 6.4 | 9.7 | 0.00 | 0.00 | 0.00 | 68 | 1019.0 |
| 20260510131624 | 6 | 317 | 3.2 | 6.4 | 0.00 | 0.00 | 0.00 | 70 | 1019.0 |
| 20260510131121 | 6 | 308 | 6.4 | 9.7 | 0.00 | 0.00 | 0.00 | 70 | 1018.8 |
| 20260510130618 | 6 | 314 | 4.8 | 9.7 | 0.00 | 0.00 | 0.00 | 69 | 1019.0 |
| 20260510130115 | 6 | 325 | 4.8 | 4.8 | 0.00 | 0.00 | 0.00 | 70 | 1018.8 |
| 20260510125611 | 6 | 322 | 6.4 | 9.7 | 0.00 | 0.00 | 0.00 | 70 | 1018.6 |
| 20260510125108 | 6 | 300 | 6.4 | 9.7 | 0.00 | 0.00 | 0.00 | 71 | 1018.7 |
| 20260510124604 | 6 | 314 | 6.4 | 6.4 | 0.00 | 0.00 | 0.00 | 70 | 1018.5 |
| 20260510124101 | 6 | 320 | 1.6 | 6.4 | 0.00 | 0.00 | 0.00 | 70 | 1018.4 |
| 20260510123556 | 6 | 303 | 4.8 | 6.4 | 0.00 | 0.00 | 0.00 | 71 | 1018.6 |
| 20260510123053 | 6 | 317 | 3.2 | 6.4 | 0.00 | 0.00 | 0.00 | 70 | 1018.4 |
| 20260510122549 | 5 | 306 | 4.8 | 4.8 | 0.00 | 0.00 | 0.00 | 70 | 1018.2 |
| 20260510122045 | 5 | 237 | 1.6 | 4.8 | 0.00 | 0.00 | 0.00 | 72 | 1018.4 |
| 20260510121542 | 5 | 299 | 3.2 | 6.4 | 0.00 | 0.00 | 0.00 | 69 | 1018.3 |
| 20260510121039 | 5 | 310 | 3.2 | 4.8 | 0.00 | 0.00 | 0.00 | 69 | 1018.2 |
| 20260510120537 | 5 | 343 | 3.2 | 3.2 | 0.00 | 0.00 | 0.00 | 69 | 1018.1 |
| 20260510120032 | 5 | 302 | 3.2 | 3.2 | 0.00 | 0.00 | 0.00 | 71 | 1018.1 |
| 20260510115529 | 5 | 311 | 3.2 | 4.8 | 0.00 | 0.00 | 0.00 | 70 | 1017.9 |
| 20260510115026 | 5 | 316 | 1.6 | 4.8 | 0.00 | 0.00 | 0.00 | 69 | 1017.9 |
| 20260510114522 | 5 | 283 | 3.2 | 3.2 | 0.00 | 0.00 | 0.00 | 69 | 1017.8 |
| 20260510114018 | 5 | 309 | 1.6 | 3.2 | 0.00 | 0.00 | 0.00 | 69 | 1017.8 |
| 20260510113514 | 5 | 290 | 3.2 | 3.2 | 0.00 | 0.00 | 0.00 | 70 | 1017.7 |
| 20260510113012 | 4 | 277 | 3.2 | 3.2 | 0.00 | 0.00 | 0.00 | 72 | 1017.7 |
| 20260510112508 | 3 | 303 | 1.6 | 1.6 | 0.00 | 0.00 | 0.00 | 75 | 1017.5 |
| 20260510112004 | 3 | 273 | 1.6 | 3.2 | 0.00 | 0.00 | 0.00 | 75 | 1017.3 |
| 20260510111500 | 3 | 273 | 3.2 | 3.2 | 0.00 | 0.00 | 0.00 | 76 | 1017.6 |
| 20260510110957 | 2 | 273 | 0.0 | 0.0 | 0.00 | 0.00 | 0.00 | 75 | 1017.5 |
| 20260510110453 | 2 | 273 | 0.0 | 0.0 | 0.00 | 0.00 | 0.00 | 74 | 1017.4 |
| 20260510105949 | 2 | 273 | 0.0 | 0.0 | 0.00 | 0.00 | 0.00 | 74 | 1017.2 |
| 20260510105445 | 3 | 274 | 0.0 | 0.0 | 0.00 | 0.00 | 0.00 | 74 | 1017.3 |
| 20260510104940 | 3 | 273 | 0.0 | 0.0 | 0.00 | 0.00 | 0.00 | 75 | 1017.1 |
| 20260510104437 | 3 | 273 | 0.0 | 0.0 | 0.00 | 0.00 | 0.00 | 73 | 1017.2 |
| 20260510103933 | 3 | 273 | 0.0 | 0.0 | 0.00 | 0.00 | 0.00 | 73 | 1016.9 |
| 20260510103426 | 3 | 273 | 0.0 | 0.0 | 0.00 | 0.00 | 0.00 | 72 | 1016.9 |
| 20260510102925 | 3 | 273 | 0.0 | 0.0 | 0.00 | 0.00 | 0.00 | 72 | 1016.9 |
| 20260510102422 | 3 | 273 | 0.0 | 0.0 | 0.00 | 0.00 | 0.00 | 70 | 1016.8 |
| 20260510101919 | 3 | 273 | 0.0 | 0.0 | 0.00 | 0.00 | 0.00 | 70 | 1016.8 |
| 20260510101417 | 4 | 286 | 0.0 | 1.6 | 0.00 | 0.00 | 0.00 | 70 | 1016.8 |
| 20260510100914 | 4 | 286 | 0.0 | 1.6 | 0.00 | 0.00 | 0.00 | 66 | 1016.6 |
| 20260510100411 | 4 | 286 | 0.0 | 1.6 | 0.00 | 0.00 | 0.00 | 66 | 1016.5 |
| 20260510095907 | 5 | 286 | 0.0 | 1.6 | 0.00 | 0.00 | 0.00 | 66 | 1016.5 |
| 20260510095402 | 5 | 286 | 0.0 | 4.8 | 0.00 | 0.00 | 0.00 | 67 | 1016.4 |
| 20260510094902 | 5 | 359 | 0.0 | 1.6 | 0.00 | 0.00 | 0.00 | 65 | 1016.6 |
| 20260510094357 | 5 | 359 | 0.0 | 1.6 | 0.00 | 0.00 | 0.00 | 64 | 1016.4 |
| 20260510093854 | 5 | 359 | 1.6 | 3.2 | 0.00 | 0.00 | 0.00 | 63 | 1016.4 |
| 20260510093349 | 5 | 348 | 0.0 | 1.6 | 0.00 | 0.00 | 0.00 | 64 | 1016.3 |
| 20260510092846 | 5 | 336 | 3.2 | 4.8 | 0.00 | 0.00 | 0.00 | 62 | 1016.3 |
| 20260510092342 | 5 | 329 | 1.6 | 3.2 | 0.00 | 0.00 | 0.00 | 63 | 1016.4 |
| 20260510091838 | 5 | 328 | 3.2 | 3.2 | 0.00 | 0.00 | 0.00 | 63 | 1016.4 |
| 20260510091335 | 5 | 338 | 3.2 | 4.8 | 0.00 | 0.00 | 0.00 | 61 | 1016.2 |
| 20260510090832 | 5 | 339 | 1.6 | 3.2 | 0.00 | 0.00 | 0.00 | 62 | 1016.4 |
| 20260510090328 | 5 | 346 | 3.2 | 4.8 | 0.00 | 0.00 | 0.00 | 61 | 1016.4 |
| 20260510085824 | 5 | 331 | 3.2 | 3.2 | 0.00 | 0.00 | 0.00 | 61 | 1016.2 |
| 20260510085324 | 5 | 330 | 3.2 | 4.8 | 0.00 | 0.00 | 0.00 | 61 | 1016.2 |
| 20260510084820 | 5 | 333 | 3.2 | 6.4 | 0.00 | 0.00 | 0.00 | 62 | 1015.9 |
| 20260510084317 | 5 | 334 | 3.2 | 3.2 | 0.00 | 0.00 | 0.00 | 62 | 1015.8 |
| 20260510083814 | 5 | 334 | 3.2 | 4.8 | 0.00 | 0.00 | 0.00 | 62 | 1015.8 |
| 20260510083311 | 5 | 335 | 1.6 | 3.2 | 0.00 | 0.00 | 0.00 | 63 | 1015.7 |
| 20260510082806 | 3 | 339 | 1.6 | 3.2 | 0.00 | 0.00 | 0.00 | 68 | 1015.7 |
| 20260510082306 | 2 | 339 | 0.0 | 0.0 | 0.00 | 0.00 | 0.00 | 74 | 1015.7 |
| 20260510081802 | 2 | 339 | 0.0 | 0.0 | 0.00 | 0.00 | 0.00 | 78 | 1015.5 |
| 20260510081258 | 2 | 339 | 0.0 | 0.0 | 0.00 | 0.00 | 0.00 | 78 | 1015.5 |
| 20260510080754 | 2 | 339 | 0.0 | 0.0 | 0.00 | 0.00 | 0.00 | 79 | 1015.3 |
| 20260510080249 | 2 | 339 | 0.0 | 0.0 | 0.00 | 0.00 | 0.00 | 80 | 1015.4 |
| 20260510075747 | 1 | 339 | 0.0 | 0.0 | 0.00 | 0.00 | 0.00 | 79 | 1015.3 |
| 20260510075244 | 1 | 339 | 0.0 | 0.0 | 0.00 | 0.00 | 0.00 | 78 | 1015.1 |
| 20260510074741 | 1 | 339 | 0.0 | 0.0 | 0.00 | 0.00 | 0.00 | 76 | 1015.4 |
| 20260510074238 | 1 | 339 | 0.0 | 0.0 | 0.00 | 0.00 | 0.00 | 76 | 1015.2 |
| 20260510073733 | 1 | 339 | 0.0 | 0.0 | 0.00 | 0.00 | 0.00 | 75 | 1015.3 |
| 20260510073230 | 1 | 339 | 0.0 | 0.0 | 0.00 | 0.00 | 0.00 | 75 | 1015.1 |
| 20260510072725 | 1 | 339 | 0.0 | 0.0 | 0.00 | 0.00 | 0.00 | 73 | 1015.1 |
| 20260510072222 | 1 | 339 | 0.0 | 0.0 | 0.00 | 0.00 | 0.00 | 73 | 1015.2 |
| 20260510071719 | 1 | 339 | 0.0 | 0.0 | 0.00 | 0.00 | 0.00 | 74 | 1015.2 |
| 20260510071216 | 1 | 339 | 0.0 | 0.0 | 0.00 | 0.00 | 0.00 | 72 | 1015.2 |
| 20260510070714 | 1 | 339 | 0.0 | 0.0 | 0.00 | 0.00 | 0.00 | 71 | 1015.0 |
| 20260510070211 | 1 | 339 | 0.0 | 0.0 | 0.00 | 0.00 | 0.00 | 72 | 1015.1 |
| 20260510065706 | 2 | 339 | 0.0 | 0.0 | 0.00 | 0.00 | 0.00 | 72 | 1015.1 |
| 20260510065202 | 2 | 339 | 0.0 | 0.0 | 0.00 | 0.00 | 0.00 | 74 | 1015.1 |
| 20260510064659 | 2 | 338 | 0.0 | 0.0 | 0.00 | 0.00 | 0.00 | 74 | 1015.0 |
| 20260510064156 | 2 | 339 | 0.0 | 0.0 | 0.00 | 0.00 | 0.00 | 73 | 1015.0 |
| 20260510063653 | 2 | 338 | 0.0 | 0.0 | 0.00 | 0.00 | 0.00 | 73 | 1014.9 |
| 20260510063149 | 2 | 338 | 0.0 | 0.0 | 0.00 | 0.00 | 0.00 | 72 | 1015.0 |
| 20260510062646 | 2 | 339 | 0.0 | 0.0 | 0.00 | 0.00 | 0.00 | 71 | 1015.0 |
| 20260510062142 | 2 | 339 | 0.0 | 0.0 | 0.00 | 0.00 | 0.00 | 71 | 1015.0 |
| 20260510061637 | 2 | 338 | 0.0 | 0.0 | 0.00 | 0.00 | 0.00 | 70 | 1014.9 |
| 20260510061135 | 2 | 339 | 0.0 | 0.0 | 0.00 | 0.00 | 0.00 | 70 | 1015.1 |
| 20260510060631 | 2 | 339 | 0.0 | 0.0 | 0.00 | 0.00 | 0.00 | 69 | 1014.9 |
| 20260510060128 | 3 | 339 | 0.0 | 0.0 | 0.00 | 0.00 | 0.00 | 69 | 1014.8 |
| 20260510055624 | 3 | 339 | 0.0 | 0.0 | 0.00 | 0.00 | 0.00 | 68 | 1014.8 |
| 20260510055122 | 3 | 339 | 0.0 | 0.0 | 0.00 | 0.00 | 0.00 | 67 | 1014.9 |
| 20260510054611 | 3 | 339 | 0.0 | 0.0 | 0.00 | 0.00 | 0.00 | 65 | 1014.8 |
| 20260510054106 | 3 | 338 | 0.0 | 0.0 | 0.00 | 0.00 | 0.00 | 64 | 1014.7 |
| 20260510053601 | 3 | 338 | 0.0 | 0.0 | 0.00 | 0.00 | 0.00 | 63 | 1014.8 |
| 20260510053058 | 3 | 338 | 0.0 | 0.0 | 0.00 | 0.00 | 0.00 | 62 | 1014.6 |
| 20260510052554 | 3 | 338 | 0.0 | 0.0 | 0.00 | 0.00 | 0.00 | 62 | 1014.6 |
| 20260510052050 | 3 | 338 | 0.0 | 0.0 | 0.00 | 0.00 | 0.00 | 61 | 1014.8 |
| 20260510051546 | 4 | 338 | 0.0 | 0.0 | 0.00 | 0.00 | 0.00 | 60 | 1014.7 |
| 20260510051042 | 4 | 338 | 0.0 | 0.0 | 0.00 | 0.00 | 0.00 | 59 | 1014.5 |
| 20260510050539 | 5 | 338 | 0.0 | 0.0 | 0.00 | 0.00 | 0.00 | 60 | 1014.6 |
| 20260510050036 | 5 | 338 | 0.0 | 0.0 | 0.00 | 0.51 | 0.51 | 59 | 1014.4 |
| 20260510045534 | 5 | 338 | 0.0 | 0.0 | 0.00 | 0.51 | 0.51 | 57 | 1014.4 |
| 20260510045029 | 5 | 338 | 0.0 | 0.0 | 0.00 | 0.51 | 0.51 | 57 | 1014.5 |
| 20260510044526 | 5 | 338 | 0.0 | 1.6 | 0.00 | 0.51 | 0.51 | 56 | 1014.3 |
| 20260510044024 | 5 | 338 | 0.0 | 1.6 | 0.00 | 0.51 | 0.51 | 55 | 1014.5 |
| 20260510043519 | 6 | 338 | 0.0 | 0.0 | 0.00 | 0.51 | 0.51 | 55 | 1014.5 |
| 20260510043015 | 6 | 338 | 0.0 | 0.0 | 0.00 | 0.51 | 0.51 | 53 | 1014.2 |
| 20260510042509 | 7 | 338 | 0.0 | 1.6 | 0.00 | 0.51 | 0.51 | 51 | 1014.3 |
| 20260510042004 | 7 | 338 | 0.0 | 1.6 | 0.00 | 0.51 | 0.51 | 51 | 1014.4 |
| 20260510041502 | 7 | 338 | 1.6 | 1.6 | 0.00 | 0.51 | 0.51 | 53 | 1014.4 |
| 20260510040959 | 8 | 338 | 1.6 | 1.6 | 0.00 | 0.51 | 0.51 | 52 | 1014.4 |
| 20260510040455 | 7 | 338 | 1.6 | 3.2 | 0.00 | 0.51 | 0.51 | 49 | 1014.4 |
| 20260510035951 | 8 | 338 | 1.6 | 1.6 | 0.00 | 0.51 | 0.51 | 50 | 1014.2 |
| 20260510035448 | 8 | 338 | 1.6 | 3.2 | 0.00 | 0.51 | 0.51 | 47 | 1014.1 |
| 20260510034947 | 8 | 340 | 3.2 | 3.2 | 0.00 | 0.51 | 0.51 | 47 | 1014.2 |
| 20260510034447 | 8 | 335 | 3.2 | 3.2 | 0.00 | 0.51 | 0.51 | 46 | 1014.1 |
| 20260510033942 | 8 | 341 | 3.2 | 4.8 | 0.00 | 0.51 | 0.51 | 45 | 1014.1 |
| 20260510033438 | 8 | 340 | 3.2 | 4.8 | 0.00 | 0.51 | 0.51 | 46 | 1014.0 |
| 20260510032936 | 9 | 333 | 4.8 | 6.4 | 0.00 | 0.51 | 0.51 | 45 | 1014.1 |
| 20260510032433 | 9 | 339 | 3.2 | 4.8 | 0.00 | 0.51 | 0.51 | 48 | 1013.8 |
| 20260510031928 | 9 | 348 | 1.6 | 3.2 | 0.00 | 0.51 | 0.51 | 46 | 1013.9 |
| 20260510031423 | 9 | 322 | 4.8 | 9.7 | 0.00 | 0.51 | 0.51 | 45 | 1013.9 |
| 20260510030919 | 9 | 319 | 8.0 | 9.7 | 0.00 | 0.51 | 0.51 | 43 | 1013.8 |
| 20260510030415 | 9 | 346 | 4.8 | 6.4 | 0.00 | 0.51 | 0.51 | 43 | 1013.6 |
| 20260510025913 | 9 | 316 | 4.8 | 6.4 | 0.00 | 0.51 | 0.51 | 44 | 1013.8 |
| 20260510025410 | 9 | 344 | 4.8 | 6.4 | 0.00 | 0.51 | 0.51 | 45 | 1013.5 |
| 20260510024907 | 10 | 325 | 6.4 | 6.4 | 0.00 | 0.51 | 0.51 | 44 | 1013.5 |
| 20260510024403 | 10 | 312 | 3.2 | 4.8 | 0.00 | 0.51 | 0.51 | 44 | 1013.5 |
| 20260510023859 | 10 | 293 | 4.8 | 4.8 | 0.00 | 0.51 | 0.51 | 44 | 1013.1 |
| 20260510023356 | 10 | 349 | 3.2 | 4.8 | 0.00 | 0.51 | 0.51 | 42 | 1013.1 |
| 20260510022854 | 10 | 329 | 1.6 | 3.2 | 0.00 | 0.51 | 0.51 | 44 | 1012.8 |
| 20260510022352 | 10 | 342 | 4.8 | 6.4 | 0.00 | 0.51 | 0.51 | 43 | 1012.9 |
| 20260510021851 | 10 | 346 | 4.8 | 6.4 | 0.00 | 0.51 | 0.51 | 44 | 1012.8 |
| 20260510021350 | 10 | 0 | 3.2 | 4.8 | 0.00 | 0.51 | 0.51 | 41 | 1012.5 |
| 20260510020846 | 10 | 334 | 3.2 | 4.8 | 0.00 | 0.51 | 0.51 | 44 | 1012.5 |
| 20260510020346 | 10 | 330 | 4.8 | 4.8 | 0.00 | 0.51 | 0.51 | 43 | 1012.5 |
| 20260510015842 | 10 | 339 | 3.2 | 3.2 | 0.00 | 0.51 | 0.51 | 43 | 1012.4 |
| 20260510015338 | 10 | 339 | 1.6 | 6.4 | 0.00 | 0.51 | 0.51 | 39 | 1012.2 |
| 20260510014833 | 10 | 342 | 1.6 | 4.8 | 0.00 | 0.51 | 0.51 | 41 | 1012.1 |
| 20260510014331 | 10 | 5 | 1.6 | 4.8 | 0.00 | 0.51 | 0.51 | 39 | 1012.0 |
| 20260510013827 | 10 | 303 | 6.4 | 6.4 | 0.00 | 0.51 | 0.51 | 38 | 1011.9 |
| 20260510013323 | 11 | 311 | 6.4 | 9.7 | 0.00 | 0.51 | 0.51 | 37 | 1012.0 |
| 20260510012818 | 11 | 334 | 4.8 | 6.4 | 0.00 | 0.51 | 0.51 | 39 | 1011.7 |
| 20260510012317 | 11 | 310 | 3.2 | 4.8 | 0.00 | 0.51 | 0.51 | 40 | 1011.6 |
| 20260510011812 | 11 | 283 | 3.2 | 12.9 | 0.00 | 0.51 | 0.51 | 37 | 1011.5 |
| 20260510011308 | 11 | 319 | 6.4 | 9.7 | 0.00 | 0.51 | 0.51 | 39 | 1011.5 |
| 20260510010805 | 11 | 328 | 4.8 | 6.4 | 0.00 | 0.51 | 0.51 | 39 | 1011.5 |
| 20260510010302 | 11 | 321 | 8.0 | 11.3 | 0.00 | 0.51 | 0.51 | 38 | 1011.3 |
| 20260510005759 | 11 | 309 | 6.4 | 9.7 | 0.00 | 0.51 | 0.51 | 38 | 1011.2 |
| 20260510005255 | 11 | 310 | 12.9 | 12.9 | 0.00 | 0.51 | 0.51 | 36 | 1011.2 |
| 20260510004753 | 11 | 311 | 8.0 | 14.5 | 0.00 | 0.51 | 0.51 | 37 | 1011.1 |
| 20260510004250 | 12 | 315 | 8.0 | 11.3 | 0.00 | 0.51 | 0.51 | 36 | 1010.9 |
| 20260510003747 | 12 | 314 | 8.0 | 9.7 | 0.00 | 0.51 | 0.51 | 36 | 1011.0 |
| 20260510003244 | 12 | 324 | 6.4 | 9.7 | 0.00 | 0.51 | 0.51 | 40 | 1011.0 |
| 20260510002742 | 12 | 312 | 3.2 | 9.7 | 0.00 | 0.51 | 0.51 | 38 | 1010.8 |
| 20260510002240 | 12 | 321 | 6.4 | 9.7 | 0.00 | 0.51 | 0.51 | 36 | 1010.9 |
| 20260510001737 | 12 | 311 | 8.0 | 12.9 | 0.00 | 0.51 | 0.51 | 37 | 1010.9 |
| 20260510001236 | 12 | 337 | 9.7 | 11.3 | 0.00 | 0.51 | 0.51 | 36 | 1010.8 |
| 20260510000731 | 12 | 325 | 8.0 | 11.3 | 0.00 | 0.51 | 0.51 | 37 | 1010.8 |
| 20260510000228 | 12 | 330 | 11.3 | 12.9 | 0.00 | 0.51 | 0.51 | 36 | 1010.7 |
| 20260509235725 | 12 | 318 | 4.8 | 9.7 | 0.00 | 0.51 | 0.51 | 37 | 1010.3 |
| 20260509235221 | 12 | 299 | 6.4 | 12.9 | 0.00 | 0.51 | 0.51 | 35 | 1010.2 |
| 20260509234717 | 12 | 319 | 6.4 | 12.9 | 0.00 | 0.51 | 0.51 | 33 | 1010.3 |
| 20260509234215 | 12 | 37 | 6.4 | 12.9 | 0.00 | 0.51 | 0.51 | 33 | 1010.2 |
| 20260509233713 | 12 | 301 | 4.8 | 11.3 | 0.00 | 0.51 | 0.51 | 35 | 1010.2 |
| 20260509233210 | 13 | 339 | 6.4 | 12.9 | 0.00 | 0.51 | 0.51 | 35 | 1010.1 |
| 20260509232706 | 13 | 337 | 8.0 | 14.5 | 0.00 | 0.51 | 0.51 | 35 | 1010.0 |
| 20260509232203 | 13 | 10 | 6.4 | 12.9 | 0.00 | 0.51 | 0.51 | 32 | 1009.9 |
| 20260509231700 | 13 | 334 | 8.0 | 14.5 | 0.00 | 0.51 | 0.51 | 35 | 1010.1 |
| 20260509231157 | 13 | 323 | 6.4 | 16.1 | 0.00 | 0.51 | 0.51 | 34 | 1009.7 |
| 20260509230654 | 13 | 331 | 9.7 | 17.7 | 0.00 | 0.51 | 0.51 | 33 | 1009.8 |
| 20260509230151 | 13 | 342 | 11.3 | 16.1 | 0.00 | 0.51 | 0.51 | 36 | 1009.7 |
| 20260509225647 | 12 | 277 | 6.4 | 16.1 | 0.00 | 0.51 | 0.51 | 34 | 1009.8 |
| 20260509225143 | 13 | 314 | 11.3 | 20.9 | 0.00 | 0.51 | 0.51 | 36 | 1009.7 |
| 20260509224638 | 13 | 301 | 8.0 | 16.1 | 0.00 | 0.51 | 0.51 | 34 | 1009.7 |
| 20260509224135 | 13 | 320 | 14.5 | 17.7 | 0.00 | 0.51 | 0.51 | 35 | 1009.4 |
| 20260509223632 | 13 | 312 | 11.3 | 16.1 | 0.00 | 0.51 | 0.51 | 33 | 1009.6 |
| 20260509223130 | 13 | 0 | 8.0 | 11.3 | 0.00 | 0.51 | 0.51 | 32 | 1009.6 |
| 20260509222626 | 13 | 341 | 8.0 | 20.9 | 0.00 | 0.51 | 0.51 | 32 | 1009.3 |
| 20260509222122 | 12 | 329 | 6.4 | 12.9 | 0.00 | 0.51 | 0.51 | 35 | 1009.3 |
| 20260509221618 | 12 | 311 | 8.0 | 24.1 | 0.00 | 0.51 | 0.51 | 33 | 1009.3 |
| 20260509221114 | 12 | 319 | 9.7 | 14.5 | 0.00 | 0.51 | 0.51 | 35 | 1009.5 |
| 20260509220610 | 12 | 320 | 11.3 | 17.7 | 0.00 | 0.51 | 0.51 | 34 | 1009.4 |
| 20260509220107 | 12 | 322 | 4.8 | 9.7 | 0.00 | 0.51 | 0.51 | 37 | 1009.1 |
| 20260509215601 | 12 | 342 | 11.3 | 14.5 | 0.00 | 0.51 | 0.51 | 36 | 1009.2 |
| 20260509215059 | 12 | 348 | 4.8 | 14.5 | 0.00 | 0.51 | 0.51 | 37 | 1009.0 |
| 20260509214556 | 12 | 305 | 9.7 | 17.7 | 0.00 | 0.51 | 0.51 | 35 | 1009.1 |
| 20260509214053 | 12 | 324 | 6.4 | 11.3 | 0.00 | 0.51 | 0.51 | 39 | 1009.2 |